Year,Month,Day,Hour,Minute,Value (Times are PST for temperature in C)
2012,07,07,00,00,13.20
2012,07,07,00,01,13.20
2012,07,07,00,02,13.20
2012,07,07,00,03,13.20
2012,07,07,00,04,13.20
2012,07,07,00,05,13.20
2012,07,07,00,06,13.20
2012,07,07,00,07,13.10
2012,07,07,00,08,13.10
2012,07,07,00,09,13.10
2012,07,07,00,10,13.10
2012,07,07,00,11,13.10
2012,07,07,00,12,13.00
2012,07,07,00,13,13.00
2012,07,07,00,14,12.90
2012,07,07,00,15,12.90
2012,07,07,00,16,12.90
2012,07,07,00,17,12.90
2012,07,07,00,18,12.80
2012,07,07,00,19,12.80
2012,07,07,00,20,12.80
2012,07,07,00,21,12.70
2012,07,07,00,22,12.70
2012,07,07,00,23,12.70
2012,07,07,00,24,12.70
2012,07,07,00,25,12.70
2012,07,07,00,26,12.60
2012,07,07,00,27,12.60
2012,07,07,00,28,12.60
2012,07,07,00,29,12.60
2012,07,07,00,30,12.50
2012,07,07,00,31,12.50
2012,07,07,00,32,12.50
2012,07,07,00,33,12.50
2012,07,07,00,34,12.40
2012,07,07,00,35,12.40
2012,07,07,00,36,12.30
2012,07,07,00,37,12.30
2012,07,07,00,38,12.30
2012,07,07,00,39,12.30
2012,07,07,00,40,12.20
2012,07,07,00,41,12.20
2012,07,07,00,42,12.20
2012,07,07,00,43,12.20
2012,07,07,00,44,12.20
2012,07,07,00,45,12.20
2012,07,07,00,46,12.20
2012,07,07,00,47,12.20
2012,07,07,00,48,12.20
2012,07,07,00,49,12.20
2012,07,07,00,50,12.20
2012,07,07,00,51,12.20
2012,07,07,00,52,12.20
2012,07,07,00,53,12.20
2012,07,07,00,54,12.20
2012,07,07,00,55,12.20
2012,07,07,00,56,12.20
2012,07,07,00,57,12.20
2012,07,07,00,58,12.20
2012,07,07,00,59,12.20
2012,07,07,01,00,12.20
2012,07,07,01,01,12.20
2012,07,07,01,02,12.20
2012,07,07,01,03,12.20
2012,07,07,01,04,12.20
2012,07,07,01,05,12.20
2012,07,07,01,06,12.20
2012,07,07,01,07,12.20
2012,07,07,01,08,12.20
2012,07,07,01,09,12.20
2012,07,07,01,10,12.20
2012,07,07,01,11,12.20
2012,07,07,01,12,12.20
2012,07,07,01,13,12.20
2012,07,07,01,14,12.20
2012,07,07,01,15,12.20
2012,07,07,01,16,12.20
2012,07,07,01,17,12.20
2012,07,07,01,18,12.20
2012,07,07,01,19,12.20
2012,07,07,01,20,12.20
2012,07,07,01,21,12.20
2012,07,07,01,22,12.20
2012,07,07,01,23,12.20
2012,07,07,01,24,12.20
2012,07,07,01,25,12.10
2012,07,07,01,26,12.10
2012,07,07,01,27,12.10
2012,07,07,01,28,12.10
2012,07,07,01,29,12.00
2012,07,07,01,30,12.00
2012,07,07,01,31,11.90
2012,07,07,01,32,11.90
2012,07,07,01,33,11.80
2012,07,07,01,34,11.80
2012,07,07,01,35,11.80
2012,07,07,01,36,11.80
2012,07,07,01,37,11.80
2012,07,07,01,38,11.80
2012,07,07,01,39,11.80
2012,07,07,01,40,11.80
2012,07,07,01,41,11.80
2012,07,07,01,42,11.70
2012,07,07,01,43,11.70
2012,07,07,01,44,11.70
2012,07,07,01,45,11.70
2012,07,07,01,46,11.70
2012,07,07,01,47,11.70
2012,07,07,01,48,11.70
2012,07,07,01,49,11.60
2012,07,07,01,50,11.60
2012,07,07,01,51,11.60
2012,07,07,01,52,11.60
2012,07,07,01,53,11.60
2012,07,07,01,54,11.60
2012,07,07,01,55,11.50
2012,07,07,01,56,11.50
2012,07,07,01,57,11.50
2012,07,07,01,58,11.40
2012,07,07,01,59,11.40
2012,07,07,02,00,11.40
2012,07,07,02,01,11.40
2012,07,07,02,02,11.30
2012,07,07,02,03,11.30
2012,07,07,02,04,11.30
2012,07,07,02,05,11.30
2012,07,07,02,06,11.30
2012,07,07,02,07,11.30
2012,07,07,02,08,11.20
2012,07,07,02,09,11.20
2012,07,07,02,10,11.20
2012,07,07,02,11,11.20
2012,07,07,02,12,11.20
2012,07,07,02,13,11.20
2012,07,07,02,14,11.20
2012,07,07,02,15,11.10
2012,07,07,02,16,11.10
2012,07,07,02,17,11.10
2012,07,07,02,18,11.10
2012,07,07,02,19,11.10
2012,07,07,02,20,11.10
2012,07,07,02,21,11.10
2012,07,07,02,22,11.00
2012,07,07,02,23,11.00
2012,07,07,02,24,11.00
2012,07,07,02,25,11.00
2012,07,07,02,26,11.00
2012,07,07,02,27,10.90
2012,07,07,02,28,10.90
2012,07,07,02,29,10.90
2012,07,07,02,30,10.90
2012,07,07,02,31,10.90
2012,07,07,02,32,10.90
2012,07,07,02,33,10.90
2012,07,07,02,34,10.90
2012,07,07,02,35,10.90
2012,07,07,02,36,10.90
2012,07,07,02,37,10.90
2012,07,07,02,38,10.90
2012,07,07,02,39,10.90
2012,07,07,02,40,10.80
2012,07,07,02,41,10.80
2012,07,07,02,42,10.80
2012,07,07,02,43,10.80
2012,07,07,02,44,10.80
2012,07,07,02,45,10.80
2012,07,07,02,46,10.80
2012,07,07,02,47,10.80
2012,07,07,02,48,10.70
2012,07,07,02,49,10.70
2012,07,07,02,50,10.70
2012,07,07,02,51,10.70
2012,07,07,02,52,10.70
2012,07,07,02,53,10.70
2012,07,07,02,54,10.70
2012,07,07,02,55,10.70
2012,07,07,02,56,10.70
2012,07,07,02,57,10.70
2012,07,07,02,58,10.70
2012,07,07,02,59,10.70
2012,07,07,03,00,10.70
2012,07,07,03,01,10.70
2012,07,07,03,02,10.70
2012,07,07,03,03,10.60
2012,07,07,03,04,10.60
2012,07,07,03,05,10.60
2012,07,07,03,06,10.60
2012,07,07,03,07,10.60
2012,07,07,03,08,10.60
2012,07,07,03,09,10.60
2012,07,07,03,10,10.60
2012,07,07,03,11,10.60
2012,07,07,03,12,10.60
2012,07,07,03,13,10.60
2012,07,07,03,14,10.60
2012,07,07,03,15,10.60
2012,07,07,03,16,10.60
2012,07,07,03,17,10.60
2012,07,07,03,18,10.60
2012,07,07,03,19,10.60
2012,07,07,03,20,10.50
2012,07,07,03,21,10.50
2012,07,07,03,22,10.50
2012,07,07,03,23,10.50
2012,07,07,03,24,10.50
2012,07,07,03,25,10.40
2012,07,07,03,26,10.40
2012,07,07,03,27,10.40
2012,07,07,03,28,10.40
2012,07,07,03,29,10.40
2012,07,07,03,30,10.40
2012,07,07,03,31,10.40
2012,07,07,03,32,10.40
2012,07,07,03,33,10.40
2012,07,07,03,34,10.30
2012,07,07,03,35,10.30
2012,07,07,03,36,10.30
2012,07,07,03,37,10.30
2012,07,07,03,38,10.30
2012,07,07,03,39,10.30
2012,07,07,03,40,10.30
2012,07,07,03,41,10.30
2012,07,07,03,42,10.30
2012,07,07,03,43,10.20
2012,07,07,03,44,10.20
2012,07,07,03,45,10.20
2012,07,07,03,46,10.20
2012,07,07,03,47,10.20
2012,07,07,03,48,10.20
2012,07,07,03,49,10.20
2012,07,07,03,50,10.20
2012,07,07,03,51,10.20
2012,07,07,03,52,10.20
2012,07,07,03,53,10.20
2012,07,07,03,54,10.10
2012,07,07,03,55,10.10
2012,07,07,03,56,10.10
2012,07,07,03,57,10.10
2012,07,07,03,58,10.10
2012,07,07,03,59,10.10
2012,07,07,04,00,10.10
2012,07,07,04,01,10.10
2012,07,07,04,02,10.10
2012,07,07,04,03,10.10
2012,07,07,04,04,10.10
2012,07,07,04,05,10.10
2012,07,07,04,06,10.10
2012,07,07,04,07,10.10
2012,07,07,04,08,10.10
2012,07,07,04,09,10.10
2012,07,07,04,10,10.10
2012,07,07,04,11,10.00
2012,07,07,04,12,10.00
2012,07,07,04,13,10.00
2012,07,07,04,14,9.90
2012,07,07,04,15,9.90
2012,07,07,04,16,9.90
2012,07,07,04,17,9.90
2012,07,07,04,18,9.90
2012,07,07,04,19,9.90
2012,07,07,04,20,9.90
2012,07,07,04,21,9.90
2012,07,07,04,22,9.90
2012,07,07,04,23,9.90
2012,07,07,04,24,9.90
2012,07,07,04,25,9.90
2012,07,07,04,26,9.90
2012,07,07,04,27,9.90
2012,07,07,04,28,9.90
2012,07,07,04,29,9.90
2012,07,07,04,30,9.90
2012,07,07,04,31,9.90
2012,07,07,04,32,9.80
2012,07,07,04,33,9.80
2012,07,07,04,34,9.80
2012,07,07,04,35,9.80
2012,07,07,04,36,9.80
2012,07,07,04,37,9.80
2012,07,07,04,38,9.80
2012,07,07,04,39,9.80
2012,07,07,04,40,9.80
2012,07,07,04,41,9.80
2012,07,07,04,42,9.80
2012,07,07,04,43,9.80
2012,07,07,04,44,9.80
2012,07,07,04,45,9.80
2012,07,07,04,46,9.80
2012,07,07,04,47,9.80
2012,07,07,04,48,9.80
2012,07,07,04,49,9.80
2012,07,07,04,50,9.80
2012,07,07,04,51,9.80
2012,07,07,04,52,9.70
2012,07,07,04,53,9.70
2012,07,07,04,54,9.70
2012,07,07,04,55,9.70
2012,07,07,04,56,9.70
2012,07,07,04,57,9.70
2012,07,07,04,58,9.70
2012,07,07,04,59,9.70
2012,07,07,05,00,9.70
2012,07,07,05,01,9.70
2012,07,07,05,02,9.70
2012,07,07,05,03,9.70
2012,07,07,05,04,9.70
2012,07,07,05,05,9.70
2012,07,07,05,06,9.70
2012,07,07,05,07,9.70
2012,07,07,05,08,9.70
2012,07,07,05,09,9.70
2012,07,07,05,10,9.70
2012,07,07,05,11,9.70
2012,07,07,05,12,9.70
2012,07,07,05,13,9.70
2012,07,07,05,14,9.70
2012,07,07,05,15,9.70
2012,07,07,05,16,9.70
2012,07,07,05,17,9.60
2012,07,07,05,18,9.70
2012,07,07,05,19,9.70
2012,07,07,05,20,9.70
2012,07,07,05,21,9.70
2012,07,07,05,22,9.70
2012,07,07,05,23,9.70
2012,07,07,05,24,9.70
2012,07,07,05,25,9.70
2012,07,07,05,26,9.70
2012,07,07,05,27,9.70
2012,07,07,05,28,9.70
2012,07,07,05,29,9.70
2012,07,07,05,30,9.70
2012,07,07,05,31,9.70
2012,07,07,05,32,9.60
2012,07,07,05,33,9.60
2012,07,07,05,34,9.60
2012,07,07,05,35,9.60
2012,07,07,05,36,9.60
2012,07,07,05,37,9.60
2012,07,07,05,38,9.60
2012,07,07,05,39,9.60
2012,07,07,05,40,9.60
2012,07,07,05,41,9.60
2012,07,07,05,42,9.60
2012,07,07,05,43,9.60
2012,07,07,05,44,9.60
2012,07,07,05,45,9.60
2012,07,07,05,46,9.60
2012,07,07,05,47,9.60
2012,07,07,05,48,9.60
2012,07,07,05,49,9.60
2012,07,07,05,50,9.60
2012,07,07,05,51,9.60
2012,07,07,05,52,9.60
2012,07,07,05,53,9.60
2012,07,07,05,54,9.60
2012,07,07,05,55,9.60
2012,07,07,05,56,9.60
2012,07,07,05,57,9.60
2012,07,07,05,58,9.60
2012,07,07,05,59,9.60
2012,07,07,06,00,9.60
2012,07,07,06,01,9.60
2012,07,07,06,02,9.60
2012,07,07,06,03,9.60
2012,07,07,06,04,9.60
2012,07,07,06,05,9.60
2012,07,07,06,06,9.60
2012,07,07,06,07,9.60
2012,07,07,06,08,9.60
2012,07,07,06,09,9.60
2012,07,07,06,10,9.60
2012,07,07,06,11,9.60
2012,07,07,06,12,9.70
2012,07,07,06,13,9.70
2012,07,07,06,14,9.70
2012,07,07,06,15,9.70
2012,07,07,06,16,9.70
2012,07,07,06,17,9.70
2012,07,07,06,18,9.70
2012,07,07,06,19,9.80
2012,07,07,06,20,9.80
2012,07,07,06,21,9.80
2012,07,07,06,22,9.80
2012,07,07,06,23,9.80
2012,07,07,06,24,9.80
2012,07,07,06,25,9.80
2012,07,07,06,26,9.80
2012,07,07,06,27,9.80
2012,07,07,06,28,9.80
2012,07,07,06,29,9.80
2012,07,07,06,30,9.80
2012,07,07,06,31,9.80
2012,07,07,06,32,9.80
2012,07,07,06,33,9.80
2012,07,07,06,34,9.80
2012,07,07,06,35,9.80
2012,07,07,06,36,9.90
2012,07,07,06,37,9.90
2012,07,07,06,38,9.90
2012,07,07,06,39,9.90
2012,07,07,06,40,10.00
2012,07,07,06,41,10.00
2012,07,07,06,42,10.00
2012,07,07,06,43,10.10
2012,07,07,06,44,10.10
2012,07,07,06,45,10.10
2012,07,07,06,46,10.10
2012,07,07,06,47,10.10
2012,07,07,06,48,10.10
2012,07,07,06,49,10.20
2012,07,07,06,50,10.20
2012,07,07,06,51,10.20
2012,07,07,06,52,10.20
2012,07,07,06,53,10.20
2012,07,07,06,54,10.20
2012,07,07,06,55,10.20
2012,07,07,06,56,10.20
2012,07,07,06,57,10.20
2012,07,07,06,58,10.30
2012,07,07,06,59,10.30
2012,07,07,07,00,10.30
2012,07,07,07,01,10.40
2012,07,07,07,02,10.40
2012,07,07,07,03,10.40
2012,07,07,07,04,10.40
2012,07,07,07,05,10.40
2012,07,07,07,06,10.40
2012,07,07,07,07,10.40
2012,07,07,07,08,10.50
2012,07,07,07,09,10.50
2012,07,07,07,10,10.50
2012,07,07,07,11,10.60
2012,07,07,07,12,10.60
2012,07,07,07,13,10.60
2012,07,07,07,14,10.60
2012,07,07,07,15,10.60
2012,07,07,07,16,10.70
2012,07,07,07,17,10.70
2012,07,07,07,18,10.70
2012,07,07,07,19,10.80
2012,07,07,07,20,10.80
2012,07,07,07,21,10.80
2012,07,07,07,22,10.80
2012,07,07,07,23,10.90
2012,07,07,07,24,10.90
2012,07,07,07,25,10.90
2012,07,07,07,26,10.90
2012,07,07,07,27,11.00
2012,07,07,07,28,11.00
2012,07,07,07,29,11.00
2012,07,07,07,30,11.10
2012,07,07,07,31,11.10
2012,07,07,07,32,11.10
2012,07,07,07,33,11.10
2012,07,07,07,34,11.20
2012,07,07,07,35,11.20
2012,07,07,07,36,11.20
2012,07,07,07,37,11.30
2012,07,07,07,38,11.30
2012,07,07,07,39,11.30
2012,07,07,07,40,11.40
2012,07,07,07,41,11.40
2012,07,07,07,42,11.50
2012,07,07,07,43,11.50
2012,07,07,07,44,11.60
2012,07,07,07,45,11.70
2012,07,07,07,46,11.70
2012,07,07,07,47,11.80
2012,07,07,07,48,11.80
2012,07,07,07,49,11.90
2012,07,07,07,50,12.00
2012,07,07,07,51,12.00
2012,07,07,07,52,12.10
2012,07,07,07,53,12.10
2012,07,07,07,54,12.20
2012,07,07,07,55,12.30
2012,07,07,07,56,12.30
2012,07,07,07,57,12.40
2012,07,07,07,58,12.40
2012,07,07,07,59,12.50
2012,07,07,08,00,12.60
2012,07,07,08,01,12.70
2012,07,07,08,02,12.70
2012,07,07,08,03,12.80
2012,07,07,08,04,12.80
2012,07,07,08,05,12.90
2012,07,07,08,06,12.90
2012,07,07,08,07,13.00
2012,07,07,08,08,13.00
2012,07,07,08,09,13.10
2012,07,07,08,10,13.10
2012,07,07,08,11,13.10
2012,07,07,08,12,13.10
2012,07,07,08,13,13.20
2012,07,07,08,14,13.20
2012,07,07,08,15,13.20
2012,07,07,08,16,13.20
2012,07,07,08,17,13.30
2012,07,07,08,18,13.30
2012,07,07,08,19,13.30
2012,07,07,08,20,13.40
2012,07,07,08,21,13.40
2012,07,07,08,22,13.40
2012,07,07,08,23,13.50
2012,07,07,08,24,13.50
2012,07,07,08,25,13.60
2012,07,07,08,26,13.60
2012,07,07,08,27,13.60
2012,07,07,08,28,13.70
2012,07,07,08,29,13.70
2012,07,07,08,30,13.80
2012,07,07,08,31,13.80
2012,07,07,08,32,13.80
2012,07,07,08,33,13.90
2012,07,07,08,34,13.90
2012,07,07,08,35,14.00
2012,07,07,08,36,14.00
2012,07,07,08,37,14.10
2012,07,07,08,38,14.10
2012,07,07,08,39,14.20
2012,07,07,08,40,14.20
2012,07,07,08,41,14.30
2012,07,07,08,42,14.30
2012,07,07,08,43,14.30
2012,07,07,08,44,14.30
2012,07,07,08,45,14.30
2012,07,07,08,46,14.40
2012,07,07,08,47,14.40
2012,07,07,08,48,14.40
2012,07,07,08,49,14.40
2012,07,07,08,50,14.40
2012,07,07,08,51,14.40
2012,07,07,08,52,14.40
2012,07,07,08,53,14.50
2012,07,07,08,54,14.50
2012,07,07,08,55,14.50
2012,07,07,08,56,14.60
2012,07,07,08,57,14.60
2012,07,07,08,58,14.60
2012,07,07,08,59,14.70
2012,07,07,09,00,14.70
2012,07,07,09,01,14.70
2012,07,07,09,02,14.80
2012,07,07,09,03,14.80
2012,07,07,09,04,14.80
2012,07,07,09,05,14.80
2012,07,07,09,06,14.90
2012,07,07,09,07,15.00
2012,07,07,09,08,15.00
2012,07,07,09,09,15.00
2012,07,07,09,10,15.00
2012,07,07,09,11,15.00
2012,07,07,09,12,15.00
2012,07,07,09,13,15.00
2012,07,07,09,14,15.10
2012,07,07,09,15,15.20
2012,07,07,09,16,15.20
2012,07,07,09,17,15.20
2012,07,07,09,18,15.30
2012,07,07,09,19,15.30
2012,07,07,09,20,15.30
2012,07,07,09,21,15.30
2012,07,07,09,22,15.30
2012,07,07,09,23,15.40
2012,07,07,09,24,15.40
2012,07,07,09,25,15.50
2012,07,07,09,26,15.50
2012,07,07,09,27,15.60
2012,07,07,09,28,15.60
2012,07,07,09,29,15.60
2012,07,07,09,30,15.70
2012,07,07,09,31,15.70
2012,07,07,09,32,15.80
2012,07,07,09,33,15.80
2012,07,07,09,34,15.80
2012,07,07,09,35,15.80
2012,07,07,09,36,15.80
2012,07,07,09,37,15.80
2012,07,07,09,38,15.90
2012,07,07,09,39,15.90
2012,07,07,09,40,16.00
2012,07,07,09,41,16.00
2012,07,07,09,42,16.00
2012,07,07,09,43,16.00
2012,07,07,09,44,16.00
2012,07,07,09,45,15.90
2012,07,07,09,46,15.90
2012,07,07,09,47,15.90
2012,07,07,09,48,16.00
2012,07,07,09,49,16.00
2012,07,07,09,50,16.10
2012,07,07,09,51,16.20
2012,07,07,09,52,16.20
2012,07,07,09,53,16.30
2012,07,07,09,54,16.30
2012,07,07,09,55,16.40
2012,07,07,09,56,16.40
2012,07,07,09,57,16.40
2012,07,07,09,58,16.40
2012,07,07,09,59,16.30
2012,07,07,10,00,16.30
2012,07,07,10,01,16.30
2012,07,07,10,02,16.20
2012,07,07,10,03,16.20
2012,07,07,10,04,16.20
2012,07,07,10,05,16.20
2012,07,07,10,06,16.30
2012,07,07,10,07,16.30
2012,07,07,10,08,16.40
2012,07,07,10,09,16.40
2012,07,07,10,10,16.40
2012,07,07,10,11,16.30
2012,07,07,10,12,16.30
2012,07,07,10,13,16.30
2012,07,07,10,14,16.30
2012,07,07,10,15,16.30
2012,07,07,10,16,16.30
2012,07,07,10,17,16.30
2012,07,07,10,18,16.40
2012,07,07,10,19,16.50
2012,07,07,10,20,16.60
2012,07,07,10,21,16.70
2012,07,07,10,22,16.80
2012,07,07,10,23,16.80
2012,07,07,10,24,16.90
2012,07,07,10,25,17.00
2012,07,07,10,26,17.10
2012,07,07,10,27,17.30
2012,07,07,10,28,17.40
2012,07,07,10,29,17.50
2012,07,07,10,30,17.60
2012,07,07,10,31,17.70
2012,07,07,10,32,17.80
2012,07,07,10,33,17.90
2012,07,07,10,34,17.90
2012,07,07,10,35,18.00
2012,07,07,10,36,18.00
2012,07,07,10,37,18.10
2012,07,07,10,38,18.20
2012,07,07,10,39,18.20
2012,07,07,10,40,18.20
2012,07,07,10,41,18.20
2012,07,07,10,42,18.30
2012,07,07,10,43,18.30
2012,07,07,10,44,18.40
2012,07,07,10,45,18.40
2012,07,07,10,46,18.40
2012,07,07,10,47,18.40
2012,07,07,10,48,18.40
2012,07,07,10,49,18.30
2012,07,07,10,50,18.30
2012,07,07,10,51,18.30
2012,07,07,10,52,18.30
2012,07,07,10,53,18.30
2012,07,07,10,54,18.30
2012,07,07,10,55,18.30
2012,07,07,10,56,18.30
2012,07,07,10,57,18.30
2012,07,07,10,58,18.30
2012,07,07,10,59,18.30
2012,07,07,11,00,18.40
2012,07,07,11,01,18.40
2012,07,07,11,02,18.40
2012,07,07,11,03,18.50
2012,07,07,11,04,18.50
2012,07,07,11,05,18.60
2012,07,07,11,06,18.70
2012,07,07,11,07,18.80
2012,07,07,11,08,18.80
2012,07,07,11,09,18.80
2012,07,07,11,10,18.90
2012,07,07,11,11,18.90
2012,07,07,11,12,18.90
2012,07,07,11,13,18.90
2012,07,07,11,14,18.80
2012,07,07,11,15,18.80
2012,07,07,11,16,18.80
2012,07,07,11,17,18.80
2012,07,07,11,18,18.90
2012,07,07,11,19,18.90
2012,07,07,11,20,19.00
2012,07,07,11,21,19.00
2012,07,07,11,22,19.10
2012,07,07,11,23,19.20
2012,07,07,11,24,19.20
2012,07,07,11,25,19.20
2012,07,07,11,26,19.20
2012,07,07,11,27,19.20
2012,07,07,11,28,19.10
2012,07,07,11,29,19.10
2012,07,07,11,30,19.00
2012,07,07,11,31,19.10
2012,07,07,11,32,19.10
2012,07,07,11,33,19.10
2012,07,07,11,34,19.20
2012,07,07,11,35,19.20
2012,07,07,11,36,19.20
2012,07,07,11,37,19.30
2012,07,07,11,38,19.30
2012,07,07,11,39,19.30
2012,07,07,11,40,19.40
2012,07,07,11,41,19.40
2012,07,07,11,42,19.30
2012,07,07,11,43,19.20
2012,07,07,11,44,19.10
2012,07,07,11,45,19.10
2012,07,07,11,46,19.10
2012,07,07,11,47,19.20
2012,07,07,11,48,19.30
2012,07,07,11,49,19.30
2012,07,07,11,50,19.30
2012,07,07,11,51,19.30
2012,07,07,11,52,19.30
2012,07,07,11,53,19.40
2012,07,07,11,54,19.40
2012,07,07,11,55,19.50
2012,07,07,11,56,19.60
2012,07,07,11,57,19.60
2012,07,07,11,58,19.70
2012,07,07,11,59,19.80
2012,07,07,12,00,19.90
2012,07,07,12,01,20.00
2012,07,07,12,02,20.00
2012,07,07,12,03,20.00
2012,07,07,12,04,20.10
2012,07,07,12,05,20.10
2012,07,07,12,06,20.20
2012,07,07,12,07,20.20
2012,07,07,12,08,20.30
2012,07,07,12,09,20.30
2012,07,07,12,10,20.30
2012,07,07,12,11,20.40
2012,07,07,12,12,20.50
2012,07,07,12,13,20.50
2012,07,07,12,14,20.60
2012,07,07,12,15,20.60
2012,07,07,12,16,20.60
2012,07,07,12,17,20.70
2012,07,07,12,18,20.70
2012,07,07,12,19,20.70
2012,07,07,12,20,20.70
2012,07,07,12,21,20.70
2012,07,07,12,22,20.70
2012,07,07,12,23,20.70
2012,07,07,12,24,20.70
2012,07,07,12,25,20.70
2012,07,07,12,26,20.70
2012,07,07,12,27,20.60
2012,07,07,12,28,20.60
2012,07,07,12,29,20.60
2012,07,07,12,30,20.70
2012,07,07,12,31,20.60
2012,07,07,12,32,20.50
2012,07,07,12,33,20.60
2012,07,07,12,34,20.60
2012,07,07,12,35,20.60
2012,07,07,12,36,20.60
2012,07,07,12,37,20.70
2012,07,07,12,38,20.80
2012,07,07,12,39,20.80
2012,07,07,12,40,20.80
2012,07,07,12,41,20.90
2012,07,07,12,42,20.90
2012,07,07,12,43,21.00
2012,07,07,12,44,21.00
2012,07,07,12,45,21.10
2012,07,07,12,46,21.00
2012,07,07,12,47,20.90
2012,07,07,12,48,20.90
2012,07,07,12,49,20.80
2012,07,07,12,50,20.80
2012,07,07,12,51,20.80
2012,07,07,12,52,20.80
2012,07,07,12,53,20.90
2012,07,07,12,54,20.90
2012,07,07,12,55,21.00
2012,07,07,12,56,21.00
2012,07,07,12,57,21.00
2012,07,07,12,58,21.10
2012,07,07,12,59,21.10
2012,07,07,13,00,21.20
2012,07,07,13,01,21.30
2012,07,07,13,02,21.40
2012,07,07,13,03,21.40
2012,07,07,13,04,21.20
2012,07,07,13,05,21.10
2012,07,07,13,06,20.90
2012,07,07,13,07,20.90
2012,07,07,13,08,20.90
2012,07,07,13,09,20.80
2012,07,07,13,10,20.80
2012,07,07,13,11,20.80
2012,07,07,13,12,20.70
2012,07,07,13,13,20.70
2012,07,07,13,14,20.80
2012,07,07,13,15,20.90
2012,07,07,13,16,21.00
2012,07,07,13,17,21.00
2012,07,07,13,18,21.10
2012,07,07,13,19,21.10
2012,07,07,13,20,21.20
2012,07,07,13,21,21.20
2012,07,07,13,22,21.20
2012,07,07,13,23,21.20
2012,07,07,13,24,21.30
2012,07,07,13,25,21.40
2012,07,07,13,26,21.40
2012,07,07,13,27,21.50
2012,07,07,13,28,21.60
2012,07,07,13,29,21.60
2012,07,07,13,30,21.70
2012,07,07,13,31,21.70
2012,07,07,13,32,21.70
2012,07,07,13,33,21.70
2012,07,07,13,34,21.70
2012,07,07,13,35,21.70
2012,07,07,13,36,21.80
2012,07,07,13,37,21.80
2012,07,07,13,38,21.80
2012,07,07,13,39,21.90
2012,07,07,13,40,22.00
2012,07,07,13,41,22.00
2012,07,07,13,42,22.10
2012,07,07,13,43,22.20
2012,07,07,13,44,22.30
2012,07,07,13,45,22.30
2012,07,07,13,46,22.40
2012,07,07,13,47,22.40
2012,07,07,13,48,22.30
2012,07,07,13,49,22.30
2012,07,07,13,50,22.30
2012,07,07,13,51,22.30
2012,07,07,13,52,22.20
2012,07,07,13,53,22.20
2012,07,07,13,54,22.30
2012,07,07,13,55,22.30
2012,07,07,13,56,22.40
2012,07,07,13,57,22.50
2012,07,07,13,58,22.50
2012,07,07,13,59,22.50
2012,07,07,14,00,22.40
2012,07,07,14,01,22.40
2012,07,07,14,02,22.50
2012,07,07,14,03,22.50
2012,07,07,14,04,22.50
2012,07,07,14,05,22.50
2012,07,07,14,06,22.40
2012,07,07,14,07,22.50
2012,07,07,14,08,22.60
2012,07,07,14,09,22.60
2012,07,07,14,10,22.70
2012,07,07,14,11,22.60
2012,07,07,14,12,22.50
2012,07,07,14,13,22.40
2012,07,07,14,14,22.40
2012,07,07,14,15,22.50
2012,07,07,14,16,22.50
2012,07,07,14,17,22.50
2012,07,07,14,18,22.40
2012,07,07,14,19,22.40
2012,07,07,14,20,22.40
2012,07,07,14,21,22.40
2012,07,07,14,22,22.50
2012,07,07,14,23,22.60
2012,07,07,14,24,22.60
2012,07,07,14,25,22.70
2012,07,07,14,26,22.80
2012,07,07,14,27,22.80
2012,07,07,14,28,22.80
2012,07,07,14,29,22.80
2012,07,07,14,30,22.80
2012,07,07,14,31,22.80
2012,07,07,14,32,22.80
2012,07,07,14,33,22.90
2012,07,07,14,34,22.90
2012,07,07,14,35,23.00
2012,07,07,14,36,23.10
2012,07,07,14,37,23.10
2012,07,07,14,38,23.10
2012,07,07,14,39,23.10
2012,07,07,14,40,23.10
2012,07,07,14,41,23.20
2012,07,07,14,42,23.20
2012,07,07,14,43,23.30
2012,07,07,14,44,23.30
2012,07,07,14,45,23.20
2012,07,07,14,46,23.10
2012,07,07,14,47,23.10
2012,07,07,14,48,23.10
2012,07,07,14,49,23.10
2012,07,07,14,50,23.20
2012,07,07,14,51,23.20
2012,07,07,14,52,23.30
2012,07,07,14,53,23.40
2012,07,07,14,54,23.40
2012,07,07,14,55,23.40
2012,07,07,14,56,23.40
2012,07,07,14,57,23.40
2012,07,07,14,58,23.40
2012,07,07,14,59,23.30
2012,07,07,15,00,23.20
2012,07,07,15,01,23.20
2012,07,07,15,02,23.10
2012,07,07,15,03,23.10
2012,07,07,15,04,23.10
2012,07,07,15,05,23.00
2012,07,07,15,06,22.90
2012,07,07,15,07,22.80
2012,07,07,15,08,22.80
2012,07,07,15,09,22.80
2012,07,07,15,10,22.80
2012,07,07,15,11,22.80
2012,07,07,15,12,22.90
2012,07,07,15,13,22.80
2012,07,07,15,14,22.90
2012,07,07,15,15,22.90
2012,07,07,15,16,23.00
2012,07,07,15,17,23.00
2012,07,07,15,18,23.10
2012,07,07,15,19,23.20
2012,07,07,15,20,23.30
2012,07,07,15,21,23.30
2012,07,07,15,22,23.30
2012,07,07,15,23,23.30
2012,07,07,15,24,23.40
2012,07,07,15,25,23.40
2012,07,07,15,26,23.40
2012,07,07,15,27,23.30
2012,07,07,15,28,23.30
2012,07,07,15,29,23.20
2012,07,07,15,30,23.20
2012,07,07,15,31,23.10
2012,07,07,15,32,23.10
2012,07,07,15,33,23.10
2012,07,07,15,34,23.10
2012,07,07,15,35,23.20
2012,07,07,15,36,23.20
2012,07,07,15,37,23.30
2012,07,07,15,38,23.30
2012,07,07,15,39,23.40
2012,07,07,15,40,23.50
2012,07,07,15,41,23.60
2012,07,07,15,42,23.70
2012,07,07,15,43,23.70
2012,07,07,15,44,23.80
2012,07,07,15,45,23.90
2012,07,07,15,46,23.90
2012,07,07,15,47,23.80
2012,07,07,15,48,23.70
2012,07,07,15,49,23.60
2012,07,07,15,50,23.50
2012,07,07,15,51,23.50
2012,07,07,15,52,23.50
2012,07,07,15,53,23.40
2012,07,07,15,54,23.40
2012,07,07,15,55,23.40
2012,07,07,15,56,23.40
2012,07,07,15,57,23.50
2012,07,07,15,58,23.60
2012,07,07,15,59,23.70
2012,07,07,16,00,23.80
2012,07,07,16,01,23.80
2012,07,07,16,02,23.90
2012,07,07,16,03,24.00
2012,07,07,16,04,24.10
2012,07,07,16,05,24.20
2012,07,07,16,06,24.30
2012,07,07,16,07,24.40
2012,07,07,16,08,24.50
2012,07,07,16,09,24.50
2012,07,07,16,10,24.60
2012,07,07,16,11,24.60
2012,07,07,16,12,24.60
2012,07,07,16,13,24.60
2012,07,07,16,14,24.60
2012,07,07,16,15,24.60
2012,07,07,16,16,24.60
2012,07,07,16,17,24.70
2012,07,07,16,18,24.70
2012,07,07,16,19,24.50
2012,07,07,16,20,24.40
2012,07,07,16,21,24.20
2012,07,07,16,22,24.00
2012,07,07,16,23,23.80
2012,07,07,16,24,23.60
2012,07,07,16,25,23.50
2012,07,07,16,26,23.30
2012,07,07,16,27,23.20
2012,07,07,16,28,23.20
2012,07,07,16,29,23.20
2012,07,07,16,30,23.30
2012,07,07,16,31,23.30
2012,07,07,16,32,23.30
2012,07,07,16,33,23.40
2012,07,07,16,34,23.50
2012,07,07,16,35,23.60
2012,07,07,16,36,23.70
2012,07,07,16,37,23.80
2012,07,07,16,38,23.90
2012,07,07,16,39,24.00
2012,07,07,16,40,24.10
2012,07,07,16,41,24.10
2012,07,07,16,42,24.10
2012,07,07,16,43,24.10
2012,07,07,16,44,24.10
2012,07,07,16,45,24.10
2012,07,07,16,46,24.10
2012,07,07,16,47,24.10
2012,07,07,16,48,24.20
2012,07,07,16,49,24.20
2012,07,07,16,50,24.20
2012,07,07,16,51,24.20
2012,07,07,16,52,24.10
2012,07,07,16,53,24.10
2012,07,07,16,54,24.10
2012,07,07,16,55,24.10
2012,07,07,16,56,24.10
2012,07,07,16,57,24.10
2012,07,07,16,58,24.20
2012,07,07,16,59,24.30
2012,07,07,17,00,24.40
2012,07,07,17,01,24.50
2012,07,07,17,02,24.60
2012,07,07,17,03,24.70
2012,07,07,17,04,24.60
2012,07,07,17,05,24.50
2012,07,07,17,06,24.40
2012,07,07,17,07,24.20
2012,07,07,17,08,24.10
2012,07,07,17,09,23.90
2012,07,07,17,10,23.70
2012,07,07,17,11,23.50
2012,07,07,17,12,23.40
2012,07,07,17,13,23.30
2012,07,07,17,14,23.20
2012,07,07,17,15,23.10
2012,07,07,17,16,23.00
2012,07,07,17,17,23.00
2012,07,07,17,18,22.90
2012,07,07,17,19,22.90
2012,07,07,17,20,22.90
2012,07,07,17,21,22.90
2012,07,07,17,22,22.80
2012,07,07,17,23,22.80
2012,07,07,17,24,22.80
2012,07,07,17,25,22.70